Regional Weather Roundup
Issued by NWS

Home | Current Version | Previous Version | Text Only | Print | Product List | Glossary On
Versions: 1 2 3 4 5 6 7 8 9 10 11 12 13 14 15 16 17 18 19 20 21 22 23 24 25 26 27 28 29 30 31 32 33 34 35 36 37 38 39 40 41 42 43 44 45 46 47 48 49 50
000
ASUS46 KSEW 300210
RWRWA

WASHINGTON REGIONAL WEATHER ROUNDUP
NATIONAL WEATHER SERVICE SEATTLE WA
700 PM PDT FRI AUG 29 2014

NOTE:"FAIR" INDICATES FEW OR NO CLOUDS BELOW 12,000 FEET WITH NO
SIGNIFICANT WEATHER AND/OR OBSTRUCTIONS TO VISIBILITY.

WAZ505-507>509-300300-
SEATTLE, TACOMA, EVERETT, AND VICINITY

CITY           SKY/WX    TMP DP  RH WIND       PRES   REMARKS
EVERETT        MOCLDY    66  55  67 N5        29.95F
BOEING FIELD   MOCLDY    72  55  55 S6        29.93F
RENTON         PTCLDY    72  57  59 S10       29.93F
SEATAC AIRPORT MOCLDY    70  54  56 SW12      29.95F
JBLM-MCCHORD   PTCLDY    71  56  60 N12       29.95F
PUYALLUP       NOT AVBL
JBLM-FT LEWIS  PTCLDY    71  55  57 SW8       29.95F
TACOMA NARROWS PTCLDY    69  54  58 SW9       29.94F
$$

WAZ001-503-506-510-514-515-300300-
NORTH INTERIOR

CITY           SKY/WX    TMP DP  RH WIND       PRES   REMARKS
BELLINGHAM     CLOUDY    65  54  67 CALM      29.94F
FRIDAY HARBOR  PTCLDY    63  53  70 VRB5      29.96S
EASTSOUND      MOCLDY    64  55  72 S10       29.92F
PORT ANGELES   CLOUDY    63  52  67 CALM      29.97S
NAS WHIDBEY    MOCLDY    62  55  77 NW3       29.96S
BURLINGTON     CLOUDY    68  57  68 CALM      29.96S
$$

WAZ020-022-039-040-504-511-512-300300-
SOUTHWEST INTERIOR

CITY           SKY/WX    TMP DP  RH WIND       PRES   REMARKS
SHELTON        PTCLDY    69  54  58 SW12      29.93S
OLYMPIA        PTCLDY    70  54  56 W5        29.96S
CHEHALIS       FAIR      72  57  60 CALM      29.96F
KELSO          CLOUDY    70  54  56 NW3       30.00S
VANCOUVER      CLOUDY    74  53  48 N6        29.94F
SCAPPOOSE, OR  MOCLDY    73  55  53 N5        29.94F
PORTLAND, OR   CLOUDY    74  55  51 N5        29.94F
$$

WAZ021-516-517-300300-
WASHINGTON COAST

CITY           SKY/WX    TMP DP  RH WIND       PRES   REMARKS
FORKS          MOCLDY    63  58  83 S5        29.97F
HOQUIAM        CLEAR     64  61  90 SW8       29.98F
ASTORIA, OR    MOCLDY    61  59  93 SW7       29.98F
$$

WAZ019-023-024-040-518-519-300300-
CASCADE MOUNTAINS AND COLUMBIA GORGE

CITY           SKY/WX    TMP DP  RH WIND       PRES   REMARKS
STAMPEDE PASS  NOT AVBL
TROUTDALE, OR  CLOUDY    75  54  47 NW6       29.93F
THE DALLES, OR CLOUDY    74  51  44 NW15G28   29.87S
$$

WAZ026-027-041>044-520-521-300300-
EAST SLOPES

CITY           SKY/WX    TMP DP  RH WIND       PRES   REMARKS
OMAK           CLOUDY    74  46  36 N12       29.79R
WENATCHEE      CLOUDY    74  42  31 W14       29.85R
ELLENSBURG     CLOUDY    68  47  46 NW25G31   29.90F
YAKIMA         NOT AVBL
$$

WAZ028-034-035-300300-
COLUMBIA BASIN

CITY           SKY/WX    TMP DP  RH WIND       PRES   REMARKS
EPHRATA        CLOUDY    74  41  30 NW14      29.81S
MOSES LAKE     CLOUDY    75  42  30 NW15      29.82S
PASCO          CLOUDY    77  50  38 NW18      29.80R
HERMISTON, OR  CLOUDY    79  47  32 SW13      29.81R
$$

WAZ036>038-300300-
NORTHEAST WASHINGTON

CITY           SKY/WX    TMP DP  RH WIND       PRES   REMARKS
SPOKANE GEIGER CLOUDY    75  45  34 SW16      29.82F
SPOKANE FELTS  CLOUDY    78  40  25 W8        29.81S
FAIRCHILD AFB  CLOUDY    74  46  36 SW12      29.83F
COEURDALENE,ID CLOUDY    75  41  29 SW9       29.80S
DEER PARK      CLOUDY    70  40  33 W8        29.81S
$$

WAZ029>033-300300-
SOUTHEAST WASHINGTON

CITY           SKY/WX    TMP DP  RH WIND       PRES   REMARKS
PULLMAN        CLOUDY    74  39  28 NW7       29.87S
LEWISTON, ID   MOCLDY    83  36  18 NW15G30   29.77F
WALLA WALLA    CLOUDY    82  42  24 SW12      29.82F
PENDLETON, OR  CLOUDY    76  45  33 W20       29.85R
$$


USA.gov is the U.S. government's official web portal to all federal, state and local government web resources and services.